Flag for U.S.A. Weather past 2 weeks in Brockton, Massachusetts, U.S.A.

Now
63 °F

Mild.


Feels Like: 63 °F
Forecast: 57 / 82 °F
Wind: 7 mph from West

Location: East Milton

Current Time: Aug 29, 2015 at 4:01:23 AM

Latest Report: Aug 29, 2015 at 2:54 AM


Visibility: N/A

Pressure: 30.19 "Hg

Humidity: 73%

Dew point: 54 °F

Location of BrocktonLocation

Historic Weather in Brockton — Graph

°F

Brockton temperature yesterday

Maximum temperature yesterday: 79 °F (at 3:54 PM)
Minimum temperature yesterday: 58 °F (at 5:54 AM)
Average temperature yesterday: 67 °F

Past Weeks' High & Low Weather Summary

 TemperatureHumidityPressure
High90 °F (Aug 18, 1:54 PM)100% (Aug 16, 1:54 AM)30.20 "Hg (Aug 16, 1:54 AM)
Low58 °F (Aug 28, 5:54 AM)37% (Aug 14, 1:54 PM)29.86 "Hg (Aug 25, 5:54 PM)
Average72 °F78%30.05 "Hg
* Reported Aug 14 2:54 AM — Aug 29 2:54 AM, Brockton, Weather by CustomWeather, © 2015

Note: Actual official high and low records may vary slightly from our data, if they occured in-between our weather recording intervals... More about our weather records

Advertising

Brockton weather history for previous 24 hours

 ConditionsComfort  
Time TempWeatherWind HumidityBarometerVisibility
2:54 AM
Sat, Aug 29
63 °FMild.7 mph73%30.19 "HgN/A
1:54 AM63 °FMild.7 mph73%30.19 "HgN/A
12:54 AM65 °FMild.9 mph68%30.20 "HgN/A
11:54 PM
Fri, Aug 28
65 °FMild.7 mph70%30.19 "HgN/A
10:54 PM65 °FMild.7 mph73%30.20 "HgN/A
9:54 PM67 °FMild.5 mph73%30.19 "HgN/A
8:54 PM67 °FMild.6 mph73%30.17 "HgN/A
7:54 PM69 °FMild.3 mph68%30.16 "HgN/A
6:54 PM72 °FMild.6 mph53%30.14 "HgN/A
5:54 PM76 °FMild.7 mph48%30.14 "HgN/A
4:54 PM77 °FWarm.7 mph44%30.13 "HgN/A
3:54 PM79 °FWarm.6 mph42%30.14 "HgN/A
2:54 PM76 °FMild.7 mph47%30.15 "HgN/A
1:54 PM76 °FMild.8 mph47%30.16 "HgN/A
12:54 PM74 °FMild.6 mph48%30.16 "HgN/A
11:54 AM72 °FMild.3 mph55%30.17 "HgN/A
10:54 AM71 °FMild.No wind55%30.19 "HgN/A
9:54 AM69 °FMild.5 mph63%30.18 "HgN/A
8:54 AM65 °FMild.8 mph73%30.17 "HgN/A
7:54 AM61 °FCool.8 mph81%30.16 "HgN/A
6:54 AM58 °FCool.10 mph87%30.15 "HgN/A
5:54 AM58 °FCool.9 mph87%30.13 "HgN/A
4:54 AM59 °FCool.12 mph84%30.12 "HgN/A
Weather by CustomWeather, © 2015

See weather overviewHow to use our weather pages